Regional Weather Roundup
Issued by NWS

Home | Current Version | Previous Version | Graphics & Text | Print | Product List | Glossary On
Versions: 1 2 3 4 5 6 7 8 9 10 11 12 13 14 15 16 17 18 19 20 21 22 23 24 25 26 27
000
ASUS45 KBOU 281707
RWRCO

WEATHER ROUNDUP FOR COLORADO
NATIONAL WEATHER SERVICE DENVER/BOULDER CO
1100 AM MDT TUE MAR 28 2017

NOTE: "FAIR" INDICATES FEW OR NO CLOUDS BELOW 12000 FEET WITH NO
SIGNIFICANT WEATHER AND/OR OBSTRUCTIONS TO VISIBILITY.

COZ001>005-013-030-031-281800-
...NORTHWEST COLORADO...

CITY           SKY/WX    TMP DP  RH WIND       PRES   REMARKS
CRAIG          LGT RAIN  36  33  89 SW10      29.94R
HAYDEN         CLOUDY    34  28  80 W3        29.93R
MEEKER         LGT RAIN  37  36  96 SW7       29.94R
MOUNT WERNER   NOT AVBL
STEAMBOAT SPGS CLOUDY    34  33  96 SW3       29.92R
WALDEN         NOT AVBL
$$

COZ006>008-011-281800-
...WEST CENTRAL VALLEYS...

CITY           SKY/WX    TMP DP  RH WIND       PRES   REMARKS
GRAND JUNCTION CLOUDY    47  41  80 W8        29.91R
MONTROSE       LGT RAIN  42  39  89 W6        29.92S
EAGLE          PTSUNNY   43  36  75 CALM      29.92S
RIFLE          CLOUDY    46  40  79 W7        29.90R
DELTA          CLOUDY    46  41  81 CALM      29.91R
NUCLA          CLOUDY    43  37  81 NW8       29.94S
$$

COZ017>023-064>068-281800-
...SOUTHWEST COLORADO...

CITY           SKY/WX    TMP DP  RH WIND       PRES   REMARKS
DURANGO        PTSUNNY   44  33  65 W6        29.85S
CORTEZ         CLOUDY    43  37  79 NW6       29.89R
PAGOSA SPRINGS FAIR      42  32  68 CALM      29.85F
TELLURIDE      CLOUDY    31  30  98 CALM      29.93S FOG
WOLF CREEK PAS PTSUNNY   25  25 100 N5        29.97S WCI  19
$$

COZ009-010-012-014-032>034-037-058>063-281800-
...CENTRAL COLORADO...

CITY           SKY/WX    TMP DP  RH WIND       PRES   REMARKS
ASPEN          CLOUDY    37  34  89 N7        29.89R
BUENA VISTA    PTSUNNY   48  25  41 SE7       29.85F
COPPER MTN     LGT SNOW  28  23  80 CALM      29.96R VSB 1
BERTHOUD PASS  PTSUNNY   21  10  63 S5        29.97R WCI  15
COTTONWOOD PAS CLOUDY    37  28  70 SE5       29.90S
GUNNISON       PTSUNNY   40  33  76 W5        29.89S
KREMMLING      DRIZZLE   41  37  87 CALM      29.91S
LEADVILLE      PTSUNNY   36  21  54 N5        29.88S
MONARCH PASS   PTSUNNY   27  23  86 W3        30.04S
SALIDA         FAIR      51  28  41 S8        29.91F
SUNLIGHT       SNOW      27  27 100 NW7       29.98S VSB<1/4 WCI  19
WILKERSON PASS CLOUDY    30  25  80 CALM      29.96F
$$

COZ069>075-281800-
...SAN LUIS VALLEY/SANGRE DE CRISTO MOUNTAINS...

CITY           SKY/WX    TMP DP  RH WIND       PRES   REMARKS
ALAMOSA        FAIR      45  33  63 NW3       29.84S
LA VETA PASS   NOT AVBL
SAGUACHE       FAIR      45  28  53 N3        29.86F
$$

COZ035-036-038>040-281800-
...NORTHERN COLORADO FRONT RANGE...

CITY           SKY/WX    TMP DP  RH WIND       PRES   REMARKS
DENVER INTL AP CLOUDY    44  39  82 NW16      29.86R
DMNS CITY PARK   N/A     44  38  78 N9G17     29.87S
AURORA         CLOUDY    42  42  99 NW15      29.88R
FRONT RANGE AP CLOUDY    46  43  87 NW14      29.87R
ERIE MUNI ARPT CLOUDY    45  39  80 NW14      29.89R
BOULDER MUN AP DRIZZLE   45  41  87 W3        29.89R
CENTENNIAL     CLOUDY    42  38  85 N12       29.87S
BROOMFIELD     CLOUDY    45  39  81 MISG      29.89R
FORT COLLINS   LGT RAIN  43  41  93 N12       29.90R FOG
LONGMONT       CLOUDY    47  39  72 NW10      29.91R
$$

COZ041-046-047-076>085-087-088-281800-
...PIKES PEAK/PALMER DIVIDE AND SOUTHERN FOOTHILLS...

CITY           SKY/WX    TMP DP  RH WIND       PRES   REMARKS
COLO. SPRINGS  PTSUNNY   45  37  73 E12       29.85F
A. F. ACADEMY  PTSUNNY   43  37  81 N20       29.85S
SCHRIEVER AFB  PTSUNNY   44  38  80 NE8G16    29.85S
ELLICOTT       CLOUDY     1  32 100 NE7       29.84S WCI -12
FALCON         CLOUDY    44  39  82 N8        29.86F
FORT CARSON    CLOUDY    46  38  75 E9        29.84S
LIMON          CLOUDY    43  42  97 S7        29.87R
MONUMENT HILL  CLOUDY    37  36  93 N10       29.89S FOG
TRINIDAD       FAIR      51  37  58 SE9       29.82R
$$

COZ042>045-048>051-090-091-281800-
...NORTHEAST COLORADO...

CITY           SKY/WX    TMP DP  RH WIND       PRES   REMARKS
GREELEY ARPT   CLOUDY    47  40  76 NE9       29.88R
AKRON          CLOUDY    46  44  93 SE15      29.87S FOG
BURLINGTON     CLOUDY    46  44  93 SE20      29.87F
WRAY           NOT AVBL
STERLING       CLOUDY    46  45  93 SE10      29.88R
HOLYOKE        RAIN      46  43  87 E16       29.92S
FORT MORGAN    CLOUDY    49  39  70 SE7       29.87S
$$

COZ086-089-092>099-281800-
...SOUTHEAST COLORADO...

CITY           SKY/WX    TMP DP  RH WIND       PRES   REMARKS
PUEBLO         CLOUDY    50  42  74 N8        29.82F
LA JUNTA       PTSUNNY   53  44  71 SW5       29.82R
LAMAR          LGT RAIN  49  46  90 SE7       29.84R FOG
SPRINGFIELD      N/A     45  45 100 SE6       29.85S
$$




USA.gov is the U.S. government's official web portal to all federal, state and local government web resources and services.